Wind_Speed
5 5 5 5 6 5 4 4 3 3 3 3 3 3 3 2 2 1 2 2 2 2 3 4 5 6 7 8 9 9 10 11 8 6 4 4 4 6 4 3 4 2 3 2 2 3 3 3 3 3 2 2 2 1 1 2 1 1 1 1 0 1 1 2 4 3 2 4 3 2 1 2 1 1 2 2 4 3 4 2 1 5 8 9 7 6 8 11
5 5 5 5 6 5 4 4 4 3 3 3 3 3 2 2 1 1 1 2 2 3 4 5 5 6 7 8 8 9 11 10 4 3 4 3 1 5 6 5 4 3 4 3 3 3 2 3 3 2 1 1 1 1 1 1 2 1 0 1 0 1 1 1 2 2 1 2 2 1 0 1 1 1 2 3 3 4 5 0 2 6 8 8 10 10 11 12
5 5 5 5 5 5 5 4 4 4 3 3 3 3 3 2 2 1 0 1 2 3 5 5 6 7 7 7 8 9 10 7 1 3 4 4 5 7 7 5 4 4 3 2 3 2 2 5 4 2 1 1 2 1 0 1 2 0 1 1 2 1 0 2 2 2 1 1 1 1 1 2 0 0 1 3 5 6 4 3 2 1 2 5 9 11 11 11
5 5 5 5 5 5 5 5 5 5 4 3 3 3 3 3 2 1 0 1 3 4 5 5 6 6 6 6 6 8 9 5 1 1 2 4 6 7 6 5 5 4 3 2 3 4 6 6 4 2 1 1 2 1 0 2 2 1 1 1 4 1 1 3 4 2 1 1 2 1 2 2 2 1 2 2 5 4 2 6 4 3 5 6 7 9 10 11
5 5 5 5 6 6 6 6 6 5 5 4 3 3 2 2 2 1 1 2 3 3 4 4 5 5 5 5 4 6 7 4 2 1 1 4 5 6 6 6 5 4 3 3 5 6 6 5 3 2 1 1 1 1 1 3 2 1 0 2 3 1 1 3 3 1 2 2 2 3 2 0 2 2 3 4 4 2 3 6 5 4 5 5 6 7 8 10
6 6 5 5 5 6 6 7 6 5 5 4 3 3 2 1 1 1 1 2 2 3 3 3 3 3 3 3 3 3 4 2 2 4 3 4 5 5 6 6 5 4 3 4 6 5 4 3 1 1 1 1 1 1 2 2 1 2 1 1 1 2 2 1 3 2 3 3 3 2 0 0 3 2 2 3 2 4 4 4 5 6 5 4 5 7 8 10
6 5 5 5 5 5 5 6 6 5 5 4 3 3 2 1 1 2 2 2 2 2 2 2 2 2 2 2 2 2 1 2 2 6 5 4 5 5 6 6 5 4 3 4 6 3 2 2 2 2 1 1 1 1 2 1 1 3 0 1 1 2 3 1 1 2 3 5 3 1 1 3 4 1 2 2 2 4 4 4 5 6 6 6 7 9 10 10
7 5 5 4 4 4 4 5 5 5 5 4 4 3 2 2 2 3 2 3 2 2 2 1 1 1 1 1 1 1 1 2 3 6 6 5 5 5 6 5 4 4 3 4 4 3 3 3 2 3 1 1 2 3 2 1 2 3 1 2 1 2 4 3 3 4 5 6 2 1 4 3 2 0 3 3 4 3 3 3 4 5 7 8 9 10 10 10
7 5 4 4 4 4 4 4 5 6 5 5 4 4 3 3 3 3 3 3 2 2 1 1 1 1 1 2 1 2 2 3 4 4 4 5 5 5 6 5 4 4 4 4 4 5 4 2 3 3 1 3 3 3 2 3 1 2 0 0 2 2 3 3 5 6 4 3 2 4 5 1 1 1 4 4 3 3 3 3 4 5 8 8 8 8 8 9
7 5 6 6 5 4 3 4 6 6 5 5 5 5 5 4 4 3 3 2 2 2 1 1 1 0 2 3 1 4 2 3 4 4 4 5 5 5 6 4 4 4 4 5 5 5 3 2 4 3 1 3 3 2 2 2 1 1 1 2 5 4 3 3 5 4 2 2 3 6 4 3 2 2 2 3 4 3 3 5 5 5 7 7 6 6 6 7
7 7 7 7 8 6 3 4 6 6 5 5 5 5 5 4 4 3 3 2 1 1 1 1 1 1 2 3 4 4 2 4 4 5 5 5 5 6 5 5 5 5 6 5 6 6 2 4 8 4 1 3 4 2 1 1 2 1 1 4 5 5 5 4 4 3 2 2 3 5 2 4 3 2 2 4 3 3 3 6 5 5 6 5 5 5 5 7
7 8 9 9 9 8 4 4 5 6 5 4 4 4 4 4 3 3 3 2 1 2 2 1 2 2 2 2 6 5 4 5 5 5 5 5 4 5 4 5 6 6 6 5 6 7 3 8 10 3 1 4 4 2 2 2 1 1 1 5 5 6 5 2 0 1 1 0 2 4 4 4 4 3 4 3 2 3 3 5 5 5 5 4 5 5 6 8
8 8 11 11 9 7 5 5 5 5 4 3 3 3 3 3 3 3 2 2 2 1 1 1 2 3 2 3 4 6 7 7 6 5 5 4 3 3 4 5 6 6 6 5 7 8 6 9 8 3 2 2 2 2 4 3 0 1 1 3 6 6 3 2 1 1 2 1 2 3 3 3 5 4 3 2 3 4 3 4 4 4 4 4 4 4 6 8
9 9 10 9 8 6 5 6 6 5 3 3 3 3 3 3 3 3 2 2 2 2 1 2 3 4 2 3 2 4 8 8 7 6 5 5 4 4 5 5 6 6 5 5 9 9 7 9 7 5 2 2 2 4 3 3 0 1 1 1 2 5 1 4 1 2 2 1 2 5 5 1 7 4 4 3 3 6 2 4 3 3 3 2 3 4 5 7
9 9 9 9 9 8 8 7 6 6 4 4 4 3 3 3 3 2 2 2 2 2 2 3 4 4 1 4 3 3 6 7 8 9 8 8 8 6 7 8 8 7 7 7 9 10 9 10 7 5 3 1 3 5 2 1 1 0 3 3 2 2 2 3 2 2 2 1 1 5 4 1 7 4 4 4 2 5 3 3 3 2 3 2 3 3 3 5
11 11 11 11 10 10 10 8 6 7 5 4 3 2 2 2 2 2 3 3 3 4 3 3 5 3 3 3 2 3 5 6 8 10 9 11 10 8 11 11 10 10 10 10 12 12 9 6 2 1 2 2 4 4 2 2 2 2 3 5 2 3 4 0 2 1 2 0 1 3 3 0 5 3 3 3 1 4 4 3 3 2 2 2 2 3 3 4
14 12 10 10 10 11 11 9 6 7 5 3 2 1 1 0 1 2 3 4 4 3 2 3 5 3 3 1 2 3 4 6 8 10 12 12 10 12 14 9 7 9 11 11 9 7 4 3 1 1 1 1 3 4 3 5 5 3 3 4 3 4 4 2 2 2 1 2 1 1 4 3 5 5 2 2 1 3 4 4 3 2 2 2 2 3 3 4
14 11 10 10 11 12 13 10 6 7 5 4 3 2 3 3 2 3 5 6 6 4 2 3 4 2 4 4 3 3 5 6 9 10 11 11 11 13 11 6 6 8 10 6 3 2 1 1 1 2 2 3 4 6 6 6 5 3 4 4 3 4 6 5 2 1 1 3 3 2 6 7 5 8 3 3 1 3 3 3 3 2 2 2 2 3 3 4
13 11 11 11 11 13 13 8 7 8 5 3 5 6 5 4 2 3 6 5 3 2 1 4 6 2 2 3 3 4 7 8 9 9 10 11 12 11 8 7 7 6 7 5 3 3 1 2 2 3 6 7 8 10 10 4 1 2 3 3 4 5 6 4 1 1 1 3 7 7 9 11 6 7 6 3 2 2 4 3 2 2 2 2 2 3 3 4
12 12 13 12 13 14 13 9 10 8 5 3 6 7 4 2 1 2 4 4 6 4 1 4 7 2 1 2 4 7 8 7 4 6 11 13 14 11 6 5 4 3 5 5 5 3 2 4 6 8 8 9 12 12 7 1 3 2 2 3 5 7 6 2 3 2 1 3 7 7 8 12 9 4 6 4 3 3 4 4 3 3 2 2 2 3 3 3
13 14 15 15 14 13 12 10 12 10 6 5 7 5 1 3 2 1 2 6 11 9 6 5 5 5 2 3 9 10 5 3 1 4 12 13 13 11 5 5 6 5 4 2 4 3 2 7 11 10 4 4 7 7 3 2 3 3 4 5 5 7 7 2 2 2 1 4 4 2 5 11 6 4 5 4 5 4 3 3 3 3 3 2 2 3 3 3
16 17 17 16 14 12 10 11 13 11 8 7 7 4 3 1 0 1 0 4 8 12 11 6 3 7 3 3 10 9 2 3 3 5 11 12 9 7 6 7 8 7 5 4 4 3 5 10 12 5 5 5 3 3 6 6 5 4 4 5 5 5 4 2 2 2 2 4 2 2 5 9 2 5 4 3 3 2 1 1 2 2 3 3 2 2 2 3
19 18 17 16 14 11 10 11 13 11 9 9 8 6 2 1 2 3 0 4 4 6 8 7 7 9 7 4 8 10 5 6 6 7 13 12 6 4 7 10 8 5 7 9 8 6 6 8 7 5 7 6 4 4 7 5 5 6 5 5 7 3 2 4 2 3 2 2 2 1 6 8 3 4 3 3 2 2 2 1 1 1 2 2 2 2 2 3
20 19 18 16 12 11 11 11 13 11 11 10 11 12 4 3 3 2 1 4 4 3 4 6 6 7 8 6 10 14 8 5 4 7 16 15 6 4 6 8 7 6 8 13 12 10 5 1 1 7 8 8 5 5 8 6 5 7 7 8 9 5 6 6 1 2 2 2 2 2 6 6 4 4 3 3 3 3 3 3 3 2 2 3 3 2 2 2
20 19 18 16 11 12 12 11 12 12 10 9 14 15 8 4 5 2 1 3 5 2 1 4 4 6 8 8 12 12 5 5 3 5 16 16 7 5 4 3 4 8 11 10 9 10 4 3 4 8 7 8 7 6 9 8 6 6 8 12 13 10 7 4 2 2 4 3 3 2 5 3 3 4 4 4 4 4 3 4 5 4 4 4 4 4 3 2
21 20 19 17 13 15 13 8 10 12 9 10 13 11 10 7 6 3 1 3 6 3 3 4 5 7 9 8 10 8 1 5 1 5 14 13 5 4 4 3 1 5 7 6 4 5 2 4 4 6 7 8 8 7 8 9 6 4 4 9 12 10 5 5 6 5 4 2 1 1 5 3 2 3 5 5 5 5 4 5 6 6 5 5 5 4 5 4
21 20 21 19 16 20 13 5 10 12 6 10 12 11 12 11 8 4 1 4 6 3 5 2 2 5 8 5 7 8 2 2 5 5 7 7 5 1 3 7 3 1 4 4 3 2 4 6 4 5 6 7 7 6 7 10 7 2 1 1 6 7 7 8 8 6 3 2 1 2 2 4 5 2 4 5 5 5 6 6 7 7 7 7 6 5 5 5
22 22 23 21 21 25 14 5 13 15 8 5 8 13 14 13 9 3 1 5 5 4 4 1 1 2 4 2 3 4 1 1 4 3 2 2 3 1 4 8 7 6 5 5 6 2 3 7 8 9 7 6 6 2 8 13 6 0 2 2 4 4 5 6 6 5 1 1 4 5 3 3 5 2 3 3 4 6 8 9 10 10 9 8 8 7 6 5
23 23 25 22 22 25 15 7 11 14 12 7 8 16 18 14 8 2 0 5 2 4 3 2 4 2 3 4 1 2 1 1 1 1 2 3 2 1 3 4 5 7 4 3 5 1 1 3 4 7 7 6 3 3 4 10 5 3 5 6 7 5 4 3 3 3 2 3 7 6 7 5 5 3 4 3 4 7 7 9 11 10 10 9 9 8 7 5
25 24 26 24 22 26 21 12 12 12 10 8 12 20 19 11 4 3 5 5 1 2 2 2 4 2 8 10 3 1 2 1 2 3 2 2 3 3 0 1 3 5 2 2 2 1 2 1 2 2 3 2 5 5 2 1 3 7 7 7 7 5 4 2 1 1 2 5 4 2 5 5 4 4 5 4 1 2 6 8 9 10 11 11 9 8 8 6
28 26 28 28 27 29 22 14 20 17 9 12 20 21 14 4 1 5 7 3 1 2 3 3 2 5 12 11 4 3 3 2 4 7 5 4 3 3 4 4 3 3 2 3 2 0 1 1 1 1 1 3 6 5 4 3 2 4 4 5 5 3 3 2 2 2 5 5 1 2 0 5 5 3 3 3 1 2 5 8 11 13 12 11 9 8 8 7
31 29 30 31 31 32 24 18 26 22 11 17 23 14 6 2 3 8 6 1 0 3 4 4 3 7 10 5 2 5 4 2 5 6 6 5 6 7 7 7 7 5 4 7 4 1 2 3 1 1 0 3 5 5 4 2 2 3 4 7 6 4 4 4 3 3 5 3 2 1 1 4 6 5 4 3 3 3 2 3 8 13 14 12 10 8 7 7
33 32 32 34 34 35 30 22 24 23 17 20 17 5 4 5 7 10 8 2 1 1 3 4 3 6 8 5 3 4 2 2 5 4 2 3 5 8 5 4 6 3 2 7 6 3 3 2 2 3 1 3 8 7 5 5 6 7 8 8 8 5 4 5 3 2 4 1 2 1 1 2 3 4 5 3 1 1 1 2 1 8 13 12 10 9 7 7
34 35 35 37 37 37 34 24 20 25 25 19 10 2 4 6 5 6 9 4 1 2 3 4 6 6 6 4 3 5 2 2 7 5 3 4 5 8 7 6 7 2 2 5 6 6 7 3 5 8 3 6 11 6 2 6 8 6 4 3 5 5 4 4 3 3 2 2 3 1 2 4 4 1 2 2 2 2 0 1 2 3 8 9 9 9 8 8
34 38 38 38 38 36 35 27 22 28 26 13 5 4 5 7 3 2 6 5 2 2 3 4 7 7 6 1 0 5 3 1 6 5 4 7 6 7 9 9 10 6 4 6 3 4 8 5 2 3 1 8 11 2 2 5 6 2 1 1 4 3 2 1 0 1 2 1 3 3 3 3 2 1 1 1 1 1 1 1 3 4 7 8 8 9 9 9
36 40 38 37 38 38 39 32 26 31 24 7 3 6 6 5 1 1 2 3 3 6 8 5 4 5 4 2 2 6 3 0 6 6 4 5 5 6 6 6 11 11 8 7 3 3 5 2 2 2 1 3 3 1 1 1 3 3 3 5 2 1 2 3 1 2 2 4 3 4 4 3 1 2 2 1 2 4 3 3 5 6 9 10 9 9 10 9
34 31 27 30 35 39 42 37 33 32 18 5 5 6 4 4 2 1 1 2 1 6 9 5 5 6 5 3 4 8 5 2 6 6 4 4 4 7 7 5 9 14 11 5 2 3 4 2 1 1 2 2 2 0 2 2 0 4 5 5 2 1 1 1 2 2 2 5 3 4 7 6 5 3 2 3 5 7 7 5 6 7 9 11 11 10 10 10
26 18 15 24 35 39 42 42 38 28 10 5 10 9 6 6 4 3 2 1 1 2 4 5 5 6 6 5 5 7 8 5 7 7 5 5 4 7 12 6 6 14 13 4 1 3 3 2 1 1 2 3 1 2 3 1 1 1 2 2 2 2 3 2 3 2 3 5 3 4 5 5 7 5 5 7 10 9 9 8 8 10 12 12 12 12 12 11
18 8 5 18 32 37 42 43 33 17 5 7 12 10 7 7 6 5 6 5 2 1 4 3 2 2 3 5 3 6 9 8 8 7 6 6 4 6 12 7 6 13 14 8 3 1 2 3 2 2 1 3 2 5 7 5 2 1 1 2 1 2 2 3 2 2 3 4 3 3 3 4 6 7 10 13 12 11 11 9 10 12 13 13 12 13 13 12
11 3 2 13 27 35 42 37 19 7 6 8 9 6 4 5 5 4 6 7 3 2 3 2 2 2 2 3 0 3 8 8 8 7 5 6 5 6 9 6 5 9 10 9 5 1 2 4 3 3 1 3 5 6 7 8 7 5 6 6 4 1 0 1 1 1 1 4 4 4 4 3 4 4 9 12 9 10 12 11 11 11 13 13 13 14 13 11
5 3 2 13 27 35 35 21 8 6 7 7 7 6 3 3 4 3 4 5 2 1 2 1 3 3 2 3 1 2 4 5 6 5 4 6 6 4 4 3 5 8 7 7 6 4 3 3 3 5 4 6 4 0 1 3 4 5 6 8 8 5 4 4 4 2 1 3 2 2 5 2 3 1 3 4 2 6 10 10 9 10 13 14 13 13 12 11
3 4 2 13 27 33 23 8 4 5 5 6 5 4 3 3 4 5 3 3 2 1 2 1 3 3 3 4 3 3 4 3 6 5 4 6 6 2 2 3 3 11 9 5 4 2 1 1 3 4 3 4 1 2 0 2 2 2 3 4 6 6 6 7 6 3 2 1 1 1 3 2 2 1 1 1 1 0 4 6 6 7 10 11 11 11 11 9
2 2 3 12 24 26 14 5 6 5 4 4 1 1 3 2 3 4 4 5 4 3 3 3 3 4 5 3 3 4 5 4 6 7 4 4 3 1 3 6 1 10 9 3 2 3 1 2 4 3 2 1 2 0 1 1 1 3 3 3 4 5 3 2 2 3 4 5 3 2 4 3 1 0 1 1 1 1 3 6 7 6 6 8 10 10 10 9
2 2 2 7 16 16 8 5 8 8 6 4 3 3 1 1 3 5 6 8 5 4 5 5 3 5 6 3 3 6 7 5 7 8 5 3 2 1 3 4 2 5 4 1 3 6 5 4 5 4 3 3 3 3 4 3 3 4 2 2 3 2 4 3 2 2 4 6 8 6 8 3 2 1 2 1 1 2 4 6 7 6 5 7 8 9 9 9
3 2 1 2 6 6 4 3 5 8 9 8 8 9 5 1 2 3 5 7 5 4 5 3 2 4 3 3 3 5 7 4 4 5 3 2 1 1 3 3 2 1 1 4 2 4 5 3 6 8 9 9 8 6 6 5 4 1 1 3 4 5 7 5 3 4 6 5 9 8 8 2 3 2 4 3 2 4 5 5 6 6 5 6 7 8 9 9
3 2 1 1 1 1 1 0 2 5 9 10 6 6 8 6 2 0 3 5 3 3 2 0 1 3 3 6 6 6 7 4 1 3 4 3 2 1 2 1 2 1 2 5 4 1 2 3 7 10 7 4 3 1 2 6 6 5 4 6 7 9 9 7 4 6 6 5 6 10 10 5 4 6 6 5 4 5 5 6 6 6 7 7 6 7 8 8
2 2 4 4 1 2 2 1 3 3 6 10 7 5 10 10 4 2 3 3 3 4 2 1 3 5 6 9 10 8 7 4 2 3 4 3 1 1 2 1 2 1 3 3 3 2 2 4 7 7 4 1 3 2 2 6 8 9 8 8 10 10 9 10 9 6 6 5 8 10 8 10 10 8 9 7 6 6 5 6 6 6 6 6 5 6 8 9
1 1 2 2 1 4 5 5 7 4 5 9 7 5 10 12 9 6 4 2 2 4 4 2 6 10 9 9 9 7 5 4 4 4 3 2 3 2 1 1 1 2 1 1 2 3 3 4 3 2 3 0 4 2 2 3 3 6 9 11 12 12 12 13 12 7 7 8 12 5 8 11 12 7 10 9 8 8 6 5 4 3 4 5 6 7 8 10
1 1 0 2 1 4 5 5 8 7 7 9 5 4 9 13 12 7 3 4 2 4 6 6 9 11 8 6 7 7 7 6 5 5 5 3 4 3 1 0 1 2 2 2 1 1 2 2 1 2 3 0 4 2 1 2 1 3 8 11 11 13 14 12 12 11 11 14 14 4 6 11 7 6 8 6 5 4 3 2 3 3 4 6 7 8 9 10
1 1 1 1 1 1 2 5 9 8 6 6 5 5 7 11 14 7 3 5 6 4 7 9 9 8 6 6 7 8 7 5 3 6 7 6 5 3 2 2 2 1 2 2 1 1 2 2 3 3 3 1 1 2 2 1 1 3 9 12 7 8 10 12 14 14 11 13 14 7 7 10 3 6 5 2 4 3 3 4 5 5 5 6 7 8 9 10
1 0 2 3 2 2 2 4 7 7 6 6 6 6 6 11 13 9 3 4 4 5 9 11 8 5 3 5 8 7 3 5 4 4 7 6 4 2 1 2 3 5 3 2 2 0 2 2 2 2 3 3 1 4 3 2 1 5 14 15 8 10 9 12 12 10 9 11 12 9 10 10 4 7 5 3 4 5 6 6 6 5 6 6 7 9 10 9
2 2 1 2 2 3 3 3 5 6 6 6 7 7 7 9 10 10 4 2 2 2 6 9 9 6 3 7 10 7 6 7 5 3 3 3 2 2 2 2 3 5 5 3 2 1 2 3 2 1 4 1 1 3 4 4 1 7 12 11 12 14 14 11 9 10 12 11 9 9 11 7 4 7 7 6 7 8 9 8 7 6 6 7 8 9 8 8
Wind_Direction
198 195 189 183 181 178 175 178 174 164 163 160 155 146 150 155 137 110 70 30 6 6 358 1 358 354 354 353 352 349 344 338 334 340 340 310 277 224 207 165 161 139 127 135 156 163 118 89 72 74 100 70 10 340 54 28 341 262 244 247 189 161 124 169 175 166 92 102 120 75 18 331 6 348 336 270 217 264 281 273 32 101 93 84 72 25 13 20
204 201 194 184 181 179 177 180 175 170 163 156 154 139 137 159 156 142 85 33 359 354 357 358 355 356 354 353 352 348 342 334 337 23 15 352 307 177 165 146 160 144 127 152 170 179 164 117 92 79 77 56 4 339 216 351 329 316 144 291 159 120 92 163 149 148 168 76 74 75 52 281 340 12 341 306 293 311 301 272 110 122 117 84 50 29 25 26
205 204 196 183 181 182 180 181 176 172 169 160 156 145 146 160 168 184 128 23 357 355 355 356 354 354 354 354 350 349 342 326 331 44 22 58 104 134 148 139 133 130 124 160 162 158 141 125 113 85 50 42 39 10 228 5 328 1 237 281 82 92 157 201 208 190 168 49 324 114 149 255 194 141 286 307 303 300 323 40 60 129 76 34 32 22 18 24
199 206 204 190 187 188 184 184 178 175 177 167 162 158 156 151 157 180 70 357 348 350 350 352 351 350 353 353 347 354 338 302 166 54 34 89 112 125 136 127 123 123 117 148 133 117 120 112 90 59 45 93 54 334 36 22 341 150 263 340 82 104 218 166 200 217 141 202 274 121 194 232 123 179 247 262 290 278 27 37 7 347 13 20 28 17 16 26
197 209 210 201 196 193 188 185 181 181 181 176 174 166 165 152 151 191 7 347 340 343 345 343 346 347 350 354 356 359 329 290 138 163 127 114 127 124 124 126 127 121 130 151 122 116 118 103 86 74 38 112 110 198 96 36 354 177 107 32 95 180 275 120 161 182 137 174 211 205 226 274 122 201 223 230 278 328 26 22 16 26 39 31 23 18 25 31
198 205 207 206 207 200 192 188 184 187 185 184 184 172 182 167 162 223 301 324 322 325 330 335 346 345 348 0 4 0 307 282 143 187 159 137 154 136 132 132 128 121 136 149 131 128 113 99 148 136 86 116 144 65 84 64 317 259 119 86 164 200 282 95 141 169 160 192 227 222 275 178 220 228 184 220 305 27 31 26 39 50 47 36 34 33 35 36
202 199 203 204 210 209 199 191 186 190 189 189 191 184 197 197 221 254 282 292 303 309 315 335 348 347 5 15 8 34 278 269 207 200 188 173 178 158 144 136 133 131 139 148 143 149 131 155 187 150 152 128 160 115 88 118 244 278 147 135 194 198 251 268 137 186 195 239 264 71 229 238 254 257 152 145 61 56 53 52 55 60 54 49 47 39 36 37
212 200 206 209 211 215 201 191 187 192 194 196 200 201 214 222 241 259 267 274 285 285 298 320 344 21 55 73 27 5 242 235 199 200 205 200 189 175 159 149 152 149 166 174 166 168 161 181 167 173 209 86 171 147 124 221 188 242 267 109 148 210 250 264 255 242 227 251 252 187 246 246 285 220 130 96 90 89 71 64 58 62 55 48 42 36 33 30
214 211 224 234 223 213 208 204 196 198 201 202 207 210 220 228 235 250 256 260 259 262 277 275 329 59 175 114 89 280 246 184 184 190 191 193 192 181 168 165 171 172 185 185 182 181 178 191 169 191 174 98 180 146 155 240 202 211 214 98 249 257 278 278 264 256 239 247 176 221 258 113 82 180 115 86 101 107 92 76 57 60 55 49 43 37 34 30
204 232 257 266 251 235 229 225 208 204 211 210 214 218 219 224 231 240 248 251 248 248 254 256 271 167 193 147 191 267 212 154 176 176 171 178 184 181 181 184 186 191 184 174 179 179 188 190 150 164 98 105 170 133 161 236 58 124 116 277 267 283 294 262 260 276 274 242 203 239 262 109 127 234 124 98 120 143 120 85 60 67 65 57 53 45 37 36
194 226 249 265 269 267 253 240 222 209 216 219 223 223 217 221 229 236 242 247 250 250 256 260 241 204 159 175 236 255 174 169 180 168 167 169 174 179 187 195 193 197 181 170 184 181 178 156 140 139 167 136 149 139 177 180 82 110 305 274 255 264 267 243 254 288 287 236 207 221 202 126 173 208 70 82 129 180 128 88 66 67 65 57 54 49 39 35
198 212 221 236 261 270 256 251 232 214 219 225 230 227 217 216 221 236 239 243 248 244 249 239 216 183 147 219 245 239 196 193 186 171 164 159 166 171 179 193 191 193 186 175 185 183 160 156 154 131 89 155 156 149 155 137 72 129 288 292 274 265 258 224 147 293 268 141 150 194 172 147 162 132 78 72 143 165 123 88 68 62 57 53 49 46 43 34
202 212 224 237 258 261 258 269 242 220 222 231 251 248 227 221 226 235 232 240 239 223 221 210 195 167 182 262 234 222 218 201 183 176 172 163 165 171 175 182 178 177 181 177 173 170 160 163 161 99 93 169 151 117 132 128 303 205 188 309 298 284 251 131 89 285 257 145 143 225 234 154 139 114 62 54 194 189 133 85 69 62 55 48 46 48 49 37
204 221 239 255 271 265 270 278 248 220 215 232 267 255 239 235 230 230 227 236 225 215 195 175 175 157 193 260 228 223 219 208 206 204 206 203 174 145 147 152 157 159 157 159 159 158 156 152 135 106 91 354 110 138 143 130 250 270 252 247 284 291 202 125 94 298 267 159 184 237 270 189 143 123 31 26 210 212 167 96 84 65 67 51 54 57 53 48
213 229 239 248 264 270 274 274 244 218 207 224 258 260 249 241 236 235 221 210 176 171 150 152 165 150 234 261 241 232 214 210 217 215 216 204 176 140 135 137 130 132 132 135 142 141 142 142 132 120 103 29 148 163 180 173 153 33 270 239 190 259 233 123 85 332 292 73 169 230 260 169 149 134 29 19 207 195 164 114 98 73 77 59 64 65 62 63
222 228 233 243 260 272 276 274 241 213 204 217 241 249 243 254 255 226 199 172 156 152 135 147 154 152 274 256 183 211 209 207 209 207 200 187 181 153 134 127 114 112 113 112 118 121 119 121 109 63 117 157 178 180 209 239 224 172 241 257 221 229 261 344 101 36 337 99 155 236 271 151 143 138 50 46 153 169 153 131 119 100 83 71 70 68 63 66
227 225 231 250 264 269 275 274 232 194 185 195 201 210 213 273 225 192 165 148 138 123 112 137 131 150 255 201 184 214 187 193 192 188 184 178 178 157 136 117 102 107 107 105 112 113 85 72 113 234 138 162 181 177 215 241 239 196 199 252 251 233 255 269 144 101 358 253 207 211 266 268 136 136 101 80 153 184 153 140 136 120 96 85 74 70 60 52
231 225 229 245 256 262 272 268 208 171 170 175 155 133 117 102 111 132 150 142 110 90 88 134 136 203 235 179 186 176 135 164 170 168 174 168 165 157 140 118 121 125 120 114 118 127 34 42 207 215 165 181 179 181 212 233 245 220 189 229 245 226 237 251 234 111 59 248 237 210 252 261 167 141 133 97 159 202 145 131 134 118 110 98 82 75 62 53
227 229 235 244 249 254 264 249 182 164 171 170 139 125 109 92 88 129 155 149 140 165 188 174 177 228 251 168 133 108 117 141 152 161 161 154 155 150 128 118 127 139 145 160 176 158 158 145 173 218 203 198 189 199 220 229 285 228 194 230 246 243 244 238 196 78 30 255 251 247 257 266 234 152 136 122 134 167 138 134 146 136 127 111 94 83 72 64
224 233 239 246 247 250 252 220 176 167 174 176 150 136 126 139 169 193 173 197 222 233 0 179 197 241 17 122 130 125 125 129 135 164 162 156 150 134 109 115 121 152 175 178 162 144 209 192 199 218 212 198 196 206 220 98 81 153 191 235 242 252 259 213 123 95 67 259 256 250 260 268 258 152 125 137 147 160 164 168 167 157 154 133 115 99 85 73
231 236 239 244 249 249 238 198 172 172 177 178 168 164 208 188 197 239 178 225 231 236 260 210 213 266 282 126 155 150 132 127 102 166 166 163 157 152 156 157 161 181 184 134 113 113 215 215 221 222 200 170 194 200 178 134 163 200 231 243 244 246 255 240 120 105 149 235 250 211 255 263 248 129 116 158 178 177 179 184 177 162 157 137 124 116 94 87
233 235 235 241 249 240 213 181 174 176 180 184 188 214 288 267 159 22 178 262 239 225 238 228 233 258 239 152 176 170 152 173 172 182 173 167 177 190 172 168 189 184 143 127 137 163 207 226 230 205 101 95 117 166 190 211 216 218 231 243 253 247 254 257 121 112 167 221 238 138 262 266 212 114 120 161 185 169 131 198 180 165 166 152 137 127 119 122
229 230 231 240 244 217 187 177 174 175 189 193 201 212 259 9 88 57 263 280 277 212 214 210 216 225 203 195 192 181 200 197 181 191 179 171 185 198 166 180 196 154 145 178 191 197 204 234 229 151 126 148 138 153 185 207 223 220 219 232 246 222 217 247 155 127 163 232 289 285 276 269 177 128 131 128 138 120 106 121 124 153 167 148 142 138 143 145
224 223 227 236 225 191 181 181 176 188 205 206 220 212 178 94 129 87 316 270 272 217 204 208 210 215 199 191 183 184 207 212 184 184 179 177 163 154 181 183 170 151 181 197 204 215 208 1 159 146 159 185 172 160 182 204 225 219 216 228 243 227 221 242 119 125 194 205 235 253 275 262 193 187 174 133 150 151 148 165 162 169 167 156 159 162 157 152
220 216 221 226 206 178 174 178 189 206 203 211 233 218 187 131 132 141 313 280 258 232 221 209 197 211 194 167 168 174 205 219 208 171 175 181 160 143 181 167 170 194 192 188 207 231 220 93 125 141 159 190 186 187 196 208 229 227 216 223 239 244 227 210 142 203 243 221 185 221 259 237 156 198 186 148 177 176 173 196 192 182 177 184 181 171 168 163
217 211 213 215 194 167 163 182 206 199 192 222 234 207 186 174 134 142 192 297 260 205 138 185 182 185 172 158 156 140 170 227 182 121 166 185 176 141 174 149 192 218 174 156 209 247 198 131 144 142 155 177 191 215 200 192 221 242 222 219 229 238 220 185 179 201 246 255 129 225 261 245 189 196 161 160 196 187 186 210 206 196 189 192 190 180 178 171
216 208 207 210 188 168 166 191 187 171 183 236 225 189 184 180 157 164 213 288 264 169 130 188 198 167 157 158 158 141 192 209 105 113 158 179 178 134 206 176 162 200 140 141 217 231 152 154 173 170 164 171 195 224 184 178 208 224 45 198 197 203 203 195 193 208 253 330 149 203 272 275 263 219 129 155 198 200 200 212 211 204 196 193 192 186 180 174
218 208 205 211 193 178 178 167 168 176 198 221 194 180 176 172 172 167 207 260 269 107 112 173 86 103 120 122 151 136 305 76 123 156 73 96 163 141 225 197 176 164 150 184 215 224 141 174 190 181 177 194 206 207 159 175 206 287 57 77 129 160 184 183 196 216 265 310 234 198 158 251 256 204 127 157 218 233 208 202 207 200 192 191 190 186 177 168
219 209 206 211 195 186 191 180 175 195 209 192 165 169 163 165 172 90 145 239 235 97 85 132 130 75 103 135 127 76 66 16 80 147 82 102 113 63 223 205 150 145 141 231 228 4 67 208 209 179 186 204 181 47 159 185 195 139 124 99 91 86 94 132 199 189 141 242 245 197 169 225 257 195 178 175 226 240 202 193 202 190 185 192 189 182 172 162
219 210 206 203 192 191 199 212 208 199 196 184 163 158 153 156 161 143 203 227 192 110 78 133 154 144 148 154 171 152 117 32 71 113 114 133 91 41 81 86 96 137 139 298 274 36 69 355 319 195 201 174 112 60 22 175 132 147 144 108 96 89 89 99 155 138 213 238 241 173 175 229 257 207 206 198 197 191 167 177 185 178 184 192 187 177 169 167
220 213 205 199 196 195 194 214 213 194 177 170 155 145 144 134 112 193 211 247 0 142 139 151 152 155 164 163 168 170 135 81 150 154 148 147 136 123 150 151 123 134 170 235 226 104 103 187 210 187 95 106 111 83 41 43 128 165 154 134 130 120 133 152 135 182 241 234 159 60 134 226 231 216 207 203 164 149 166 173 177 179 186 188 182 172 169 172
223 217 207 201 201 197 194 211 206 188 169 165 152 137 138 152 209 214 218 12 172 191 153 149 172 176 177 165 121 148 140 134 168 167 157 162 175 175 186 189 166 164 211 211 195 150 206 209 168 68 292 183 150 113 81 86 204 209 164 164 179 169 173 199 183 199 240 236 102 67 180 218 234 249 253 222 189 191 185 158 173 179 181 180 176 169 169 173
224 219 210 205 204 202 203 212 202 183 167 163 160 146 150 179 217 214 208 198 175 184 90 98 133 162 165 157 145 150 120 139 169 172 142 159 189 192 216 229 180 184 218 187 184 183 204 214 152 168 209 207 185 163 154 172 190 195 177 178 190 171 179 205 185 227 260 216 97 35 256 222 236 255 257 235 135 81 76 68 137 175 175 175 169 165 168 176
226 219 211 208 207 206 205 207 199 183 169 161 172 181 158 196 221 193 197 212 45 61 68 96 111 130 164 177 169 165 162 168 166 160 144 162 193 201 214 225 207 211 69 162 188 194 209 234 177 178 163 171 191 201 159 152 169 189 178 186 203 185 195 207 190 222 246 117 126 142 227 199 179 175 319 339 18 14 33 108 51 156 167 159 153 159 171 183
225 217 211 207 206 206 203 200 195 183 169 157 183 190 190 215 210 153 190 183 130 102 84 104 122 140 187 216 87 194 216 220 165 156 168 178 197 203 199 204 200 191 155 177 191 183 214 251 147 160 163 167 182 209 47 126 154 180 49 212 229 212 174 149 101 143 87 65 185 179 235 226 171 97 45 339 275 192 171 149 142 166 163 152 157 173 183 190
219 214 209 203 201 200 199 197 190 178 168 152 198 199 212 224 192 295 217 145 153 143 127 133 139 150 193 190 195 210 233 114 162 174 195 196 230 219 199 202 195 195 192 182 172 164 202 248 74 57 14 153 175 164 95 150 159 151 181 198 218 350 100 127 125 73 81 264 230 171 223 231 162 227 167 152 231 189 175 172 167 173 169 170 182 187 189 193
212 208 205 202 200 196 196 196 186 176 169 163 202 208 220 224 188 219 290 60 132 145 143 173 182 169 187 190 195 194 186 149 165 187 192 183 229 205 193 227 202 199 211 207 208 205 187 168 89 81 118 91 335 170 98 354 122 150 188 189 143 18 356 168 200 117 154 248 251 181 217 208 181 210 156 165 218 206 188 173 167 176 180 189 197 191 191 194
204 198 204 209 204 195 193 193 184 175 171 183 199 209 205 200 184 159 148 109 71 158 183 208 193 180 188 189 186 174 177 176 167 184 187 181 219 182 175 204 200 196 209 214 266 233 203 180 113 71 137 118 323 209 150 49 322 192 213 170 114 211 203 171 192 183 189 236 253 194 211 219 203 193 162 189 213 202 180 170 177 189 192 197 200 193 193 193
190 180 226 211 203 197 191 188 182 174 185 196 201 210 201 197 192 161 156 151 105 162 218 237 208 191 190 182 161 153 179 183 163 177 196 189 211 177 170 185 190 194 196 184 184 196 198 224 175 119 119 119 159 212 191 174 142 36 184 162 295 261 209 170 175 193 205 226 253 220 204 212 204 183 171 190 205 188 168 175 194 199 199 199 196 192 192 192
172 170 256 182 189 194 188 183 178 178 198 204 208 210 186 188 188 167 168 164 139 163 211 246 215 193 192 190 89 153 189 194 173 188 208 184 193 194 183 184 176 183 183 181 203 197 169 234 194 128 114 167 182 207 201 181 163 166 179 178 185 180 26 247 191 116 234 229 231 255 261 210 162 169 177 183 193 176 167 182 198 199 200 201 199 196 192 189
146 223 216 158 174 181 178 176 180 188 196 209 216 214 194 169 155 165 184 174 165 164 166 204 206 196 177 187 223 155 177 198 191 202 223 200 210 214 190 189 163 149 147 176 211 210 183 209 175 150 179 197 190 55 259 212 185 185 190 184 181 165 151 202 209 167 300 265 222 248 276 238 133 153 186 154 151 174 178 188 193 195 199 202 203 200 192 188
141 227 171 153 166 167 165 176 185 176 199 208 206 196 172 153 154 168 171 172 203 180 114 194 211 198 183 183 192 159 155 190 200 208 243 222 219 228 8 338 150 148 151 176 202 192 131 152 160 157 183 199 191 35 307 283 305 274 245 197 184 180 175 197 212 178 148 243 27 37 285 277 114 79 45 80 34 210 203 204 197 199 201 200 202 196 189 186
181 199 128 152 164 163 164 194 181 177 206 189 147 95 136 139 162 167 167 181 189 166 175 210 191 204 219 187 163 175 171 187 199 204 240 245 226 319 338 327 239 164 168 177 165 158 150 180 170 143 94 83 27 26 177 7 289 241 248 208 196 200 185 202 208 149 172 193 152 165 245 243 163 85 15 24 350 336 250 225 211 208 204 198 199 192 186 182
145 110 77 168 174 172 176 192 184 193 197 171 170 181 142 85 165 170 182 186 179 164 194 215 195 209 223 176 163 192 184 190 211 209 219 221 207 353 346 326 286 181 181 192 170 175 182 188 166 144 150 181 200 218 211 193 199 219 212 183 208 171 98 69 95 135 221 200 163 197 243 223 143 267 307 336 276 255 239 228 220 213 203 197 197 191 186 179
127 104 20 207 190 182 190 193 183 190 190 188 195 193 187 194 182 185 188 183 179 167 185 218 196 186 189 158 175 203 190 194 215 204 196 193 204 350 349 340 354 176 280 341 331 198 194 191 175 176 188 196 198 212 211 176 161 213 183 168 206 179 155 159 157 184 226 186 156 205 243 222 119 217 247 220 201 233 220 206 217 220 209 203 193 187 186 183
151 136 121 174 297 268 242 207 174 191 187 184 189 189 191 197 205 26 180 184 186 164 157 60 135 148 172 181 194 211 207 208 185 180 191 189 186 286 297 334 76 83 333 351 356 244 181 205 213 214 216 200 176 194 136 125 144 187 183 169 194 197 187 188 187 201 202 151 179 223 234 242 213 186 204 207 191 218 212 184 200 214 210 206 192 185 188 191
165 160 159 156 176 230 251 267 216 214 179 175 176 177 188 196 196 161 187 198 174 162 156 52 159 189 197 192 204 215 200 186 172 178 183 178 163 278 274 209 101 36 350 354 0 54 136 211 225 235 258 38 64 49 125 139 169 190 186 184 195 193 186 196 208 203 140 138 234 232 205 235 240 188 182 198 194 212 217 192 199 203 196 193 179 178 190 199
184 134 178 153 133 193 210 208 198 190 164 173 175 166 179 189 189 186 184 157 143 172 182 207 211 213 207 193 202 204 170 172 207 194 171 156 158 178 297 344 334 337 36 40 0 71 143 220 220 209 246 12 54 39 153 131 155 194 195 198 196 186 183 198 214 201 148 193 243 214 156 224 245 194 181 195 193 202 207 193 188 174 171 176 173 180 196 206
143 86 273 347 38 181 185 167 169 178 176 169 164 166 178 184 189 192 146 124 168 206 197 212 218 211 207 193 188 187 178 186 207 195 175 161 163 166 150 69 296 332 64 93 20 86 164 211 128 164 219 19 47 33 139 141 180 213 216 216 203 186 183 193 216 212 196 223 244 210 177 235 242 163 177 190 175 180 170 137 152 172 183 181 180 192 203 210
172 176 147 68 52 123 117 135 155 176 185 171 185 194 182 186 188 179 128 162 182 191 198 213 211 189 182 185 189 202 198 180 182 184 169 158 167 184 186 177 166 76 75 113 150 278 236 180 112 132 183 161 77 66 61 37 223 221 239 237 203 160 177 202 222 222 212 232 246 238 237 250 211 138 160 137 112 138 163 175 187 198 199 181 183 201 212 218
106 16 133 135 144 144 130 137 155 174 187 190 200 185 176 197 190 165 158 200 179 171 192 198 183 152 154 195 204 209 165 93 94 152 152 149 161 170 163 165 146 138 140 142 132 226 234 165 85 106 191 200 142 129 116 65 27 259 253 241 183 147 190 215 222 220 206 220 237 238 244 248 177 140 161 148 156 195 203 198 197 204 200 187 195 210 217 222
105 22 56 127 137 151 151 142 158 180 193 196 197 180 179 198 179 156 168 216 114 156 185 170 152 137 164 209 210 192 127 100 90 89 100 101 85 69 87 128 145 143 147 149 127 108 170 154 105 154 190 204 61 144 139 109 182 245 249 226 183 184 209 220 223 222 209 207 219 225 235 241 146 148 182 185 194 213 215 208 206 207 199 195 208 217 218 222
Height
825 825 825 826 826 827 827 827 827 827 828 828 828 828 828 828 828 828 828 828 828 828 828 828 828 828 827 827 827 826 825 824 824 823 823 822 822 822 823 824 824 825 825 825 825 826 826 826 826 826 825 826 830 831 831 833 832 831 834 837 838 842 842 840 841 841 841 841 842 844 846 845 844 842 840 840 839 839 837 836 835 836 840 842 844 844 843 841
825 825 825 825 826 826 826 826 827 827 827 827 827 827 828 827 827 828 828 828 828 828 828 828 828 827 827 827 826 825 824 824 823 823 823 822 821 821 823 824 824 824 825 825 825 826 825 826 826 826 826 828 832 832 832 833 833 834 837 837 838 840 839 838 838 839 841 842 842 844 847 846 844 843 842 841 839 838 837 836 835 837 840 841 844 844 843 842
825 825 825 825 825 826 826 826 826 827 827 827 827 827 827 827 827 827 827 828 827 828 828 827 827 827 827 826 825 825 824 823 823 824 823 822 822 822 823 823 824 824 825 825 825 825 825 826 826 826 827 830 833 833 832 834 834 837 838 836 837 839 839 839 839 839 840 843 843 844 848 847 844 844 843 842 840 837 837 838 838 838 839 841 844 845 844 843
825 825 825 825 825 825 826 826 826 827 827 827 827 827 827 827 827 827 827 827 827 827 827 827 827 826 827 826 826 825 823 823 825 824 823 823 823 823 823 824 824 825 825 825 825 825 826 826 826 827 829 832 835 834 834 836 836 838 837 835 838 842 840 838 839 840 842 844 843 845 848 846 844 845 843 843 841 836 836 841 843 842 843 845 846 846 845 844
825 825 825 825 825 825 825 826 826 826 826 826 827 827 827 827 827 827 827 827 827 827 827 827 827 826 827 825 826 824 824 829 827 823 824 824 823 824 824 824 824 825 825 825 825 826 826 826 826 828 830 833 835 835 836 838 838 838 838 837 839 843 840 837 840 842 844 846 845 846 845 843 844 844 843 842 841 839 842 847 847 847 848 848 848 847 846 845
824 824 825 825 825 825 825 825 826 826 826 826 826 826 826 826 826 826 827 826 826 827 826 827 826 826 826 826 826 824 827 832 826 822 824 824 824 824 824 824 825 825 825 825 826 826 826 827 828 831 832 834 836 836 838 840 840 837 838 842 841 842 840 838 841 843 845 845 844 843 843 843 843 843 842 843 844 846 850 851 850 850 850 850 849 848 847 846
823 824 824 824 824 824 824 825 825 825 825 825 826 826 826 826 826 826 826 826 826 826 826 826 826 826 826 826 826 825 828 828 822 823 824 823 824 824 824 825 824 825 825 826 826 826 827 828 829 832 833 835 837 838 840 841 840 837 838 842 843 844 842 839 841 844 845 843 841 843 844 842 840 841 843 845 849 852 853 853 852 852 851 850 849 848 847 847
823 823 823 823 824 824 824 824 824 825 825 825 825 825 825 826 825 826 826 826 826 826 826 826 826 826 826 826 826 827 828 824 821 823 823 823 824 823 824 825 824 825 826 825 826 826 827 829 830 833 833 836 837 838 842 840 838 839 838 840 843 845 841 839 842 842 843 841 841 843 842 839 839 840 842 848 852 854 854 854 854 852 851 851 849 849 849 848
822 822 823 823 823 823 823 823 824 824 824 824 824 824 825 825 825 825 825 825 825 826 825 826 826 826 826 826 826 829 826 822 822 822 822 823 823 823 824 824 825 825 825 826 826 826 827 829 830 831 832 836 837 838 842 840 838 839 839 841 841 841 839 839 839 838 840 840 840 842 838 838 841 840 843 851 853 854 855 854 854 853 852 852 852 852 851 850
822 822 822 822 822 823 823 823 823 823 823 823 823 824 824 824 824 824 825 825 825 825 825 825 825 826 826 825 828 829 823 820 822 822 822 823 823 823 823 824 825 825 825 826 826 826 827 828 829 829 831 835 837 840 842 840 839 840 841 841 840 839 839 839 838 837 839 839 840 839 836 839 842 840 842 850 853 854 854 853 854 853 853 854 854 854 853 852
821 822 822 822 822 822 822 822 822 822 822 822 823 823 823 824 824 824 824 824 824 825 825 825 825 825 826 825 828 827 821 821 822 821 822 822 823 823 823 824 824 824 825 825 826 826 826 827 828 829 831 833 837 842 843 841 841 842 843 841 839 838 837 837 838 839 838 838 839 838 838 841 841 840 844 850 854 853 853 853 854 853 854 855 854 854 853 852
820 821 822 822 821 821 821 821 821 821 822 822 822 822 823 823 823 824 824 824 824 824 825 825 825 825 826 826 825 822 820 821 821 821 822 822 822 823 823 824 823 824 824 825 826 826 827 827 827 830 832 832 836 841 842 842 843 844 844 840 837 834 834 836 837 840 839 837 839 838 839 841 841 843 848 852 853 852 852 852 853 854 854 854 854 854 853 853
819 820 820 820 820 820 820 820 820 820 821 822 822 822 822 822 823 823 823 824 824 824 824 824 825 825 826 825 821 819 820 820 820 821 822 822 822 822 823 823 823 824 824 825 825 826 827 827 827 830 833 833 837 841 841 843 845 843 844 843 839 834 833 836 838 839 837 837 840 838 836 837 841 845 848 852 853 851 850 851 853 854 855 855 855 854 854 854
818 819 819 819 819 819 819 819 819 820 821 821 822 822 822 822 823 822 823 823 823 824 824 824 825 825 826 822 818 819 819 820 821 821 821 822 822 822 823 823 823 824 824 825 825 826 827 828 829 831 834 835 837 840 841 843 844 842 843 844 844 840 834 834 839 838 835 836 838 837 834 833 840 845 848 852 852 850 849 851 854 854 855 855 855 855 854 855
818 818 818 818 818 818 818 818 818 819 820 821 821 821 822 822 822 822 823 823 823 824 823 824 824 824 826 821 817 818 818 819 820 819 820 821 822 823 823 823 824 824 825 825 825 827 828 828 830 832 837 839 838 840 841 842 842 844 845 843 844 844 835 832 840 840 836 836 834 836 835 832 838 845 849 853 851 849 849 852 854 855 856 856 855 856 855 856
817 817 817 818 818 818 817 817 817 818 819 820 821 821 822 822 822 822 823 823 823 824 824 824 824 824 825 821 817 818 818 818 818 818 820 820 821 822 823 824 824 825 825 826 827 828 829 830 834 837 838 839 838 839 842 844 844 845 846 842 842 845 838 833 839 841 839 837 833 834 834 830 837 845 850 853 852 849 850 853 855 856 856 857 856 857 856 856
815 816 816 817 817 817 817 817 817 818 819 819 820 821 821 822 822 822 823 823 824 823 824 824 823 824 823 819 818 817 816 816 817 818 819 820 821 821 823 824 825 826 826 827 828 829 829 833 838 839 837 839 838 839 846 850 844 843 848 845 842 844 841 836 837 840 840 837 834 835 833 829 836 846 850 853 853 850 850 853 855 856 857 857 857 857 857 856
813 814 815 816 816 817 817 816 817 818 818 819 820 821 821 821 822 823 823 823 824 824 825 824 825 827 821 816 816 814 814 815 816 818 819 820 821 822 822 824 826 827 827 829 830 830 832 835 838 836 838 842 839 839 846 844 834 836 845 844 842 843 843 839 836 838 839 836 834 836 835 829 834 847 851 852 854 850 850 854 855 856 857 857 857 857 857 857
812 813 814 815 815 816 816 816 816 817 818 819 819 820 821 822 822 822 823 824 823 822 822 820 820 822 817 813 813 813 814 815 816 818 819 819 821 822 822 824 826 826 829 832 832 832 833 835 840 839 837 837 835 833 833 830 828 833 838 839 839 839 838 838 837 839 841 838 835 835 834 828 829 841 849 852 854 852 853 855 855 856 856 856 857 857 857 858
810 812 813 813 814 814 814 815 816 817 818 818 819 820 820 821 822 822 822 822 818 814 814 813 812 812 812 811 813 814 815 816 817 817 818 819 820 822 824 825 827 828 830 831 832 834 834 836 838 832 827 827 828 827 826 830 833 837 840 840 840 839 835 835 838 843 843 840 836 834 835 830 827 837 848 852 853 852 853 854 855 856 856 857 857 858 858 858
809 811 811 812 812 813 813 814 816 817 817 818 819 819 817 817 819 819 818 817 812 809 810 810 810 810 810 811 812 812 814 816 817 817 818 819 819 821 823 825 828 830 831 832 834 836 837 837 829 821 820 824 826 827 831 835 837 839 840 841 842 840 836 834 839 844 845 843 837 838 840 831 828 838 849 852 851 851 852 853 854 855 857 857 857 858 858 858
808 809 809 810 811 811 812 813 815 816 817 818 818 817 815 814 815 815 815 814 809 807 809 809 811 810 809 811 811 811 812 815 817 817 818 819 819 820 821 824 826 827 832 834 835 838 840 834 822 820 825 830 832 834 835 837 839 840 840 842 842 837 835 836 842 846 846 843 836 839 841 828 829 843 850 852 851 853 857 856 856 857 857 857 858 858 859 858
806 806 808 809 809 811 811 813 815 816 816 816 816 816 815 814 814 814 815 816 810 805 806 807 808 808 808 810 809 811 811 811 814 815 816 817 818 819 820 822 824 827 833 831 829 835 836 828 819 823 829 832 836 839 838 838 840 839 839 842 840 837 838 837 841 847 847 846 840 841 841 827 831 846 850 854 856 856 861 860 859 859 857 858 859 859 859 858
802 805 806 806 808 810 811 813 814 815 815 815 815 813 814 814 814 815 815 815 811 804 802 802 803 803 803 805 805 807 809 807 807 810 812 814 816 819 818 818 823 828 829 824 823 825 825 825 825 827 830 830 835 840 840 839 838 838 839 839 834 834 838 835 839 845 845 847 846 844 838 824 826 837 842 852 858 857 860 860 859 860 859 860 860 859 859 859
799 802 804 805 808 808 811 813 812 813 813 814 812 811 814 814 814 816 815 817 812 803 802 800 800 799 796 801 803 803 807 805 804 805 807 810 812 816 818 817 821 824 823 823 827 823 821 827 829 830 833 832 833 837 837 835 835 835 835 833 830 829 834 838 843 845 841 841 843 844 835 822 822 830 836 847 853 854 857 857 856 857 859 859 858 859 860 859
797 800 802 804 806 807 811 811 809 812 812 812 809 809 813 813 815 815 816 824 815 799 800 799 796 795 793 798 801 803 808 805 802 803 806 809 809 811 816 819 821 821 820 826 830 825 824 829 829 829 834 834 835 834 832 834 835 835 833 831 830 831 835 841 843 844 841 837 844 848 837 823 817 819 832 845 847 849 854 854 853 855 856 857 857 857 858 859
795 798 799 801 804 806 808 807 807 810 810 808 806 809 813 812 816 814 818 833 815 788 793 797 794 792 792 797 797 801 808 803 802 806 806 807 808 809 813 817 821 822 823 827 830 825 824 831 832 829 831 834 835 830 829 833 832 833 837 836 834 835 839 841 841 842 839 837 844 847 840 833 822 819 834 844 842 846 850 850 850 851 853 854 855 857 857 859
792 795 797 799 801 802 803 804 805 806 806 805 804 809 811 812 816 813 825 839 807 778 787 794 793 792 793 799 797 799 805 801 802 807 807 808 809 809 812 813 814 819 822 823 824 823 823 828 830 828 831 832 828 825 827 829 829 836 844 843 838 839 840 840 841 841 842 843 840 837 841 842 828 820 835 843 837 837 841 843 844 846 851 852 853 855 856 858
790 792 794 797 799 801 802 802 803 802 803 803 804 808 809 813 815 816 838 836 791 775 788 789 792 796 796 801 801 802 805 803 804 806 808 809 809 810 813 813 813 818 823 821 818 822 826 829 827 825 827 826 825 831 831 826 828 839 846 843 842 844 844 844 843 841 846 849 837 830 836 838 826 815 824 835 830 823 828 834 836 840 848 850 851 853 855 858
787 789 792 795 797 799 801 800 800 801 802 803 805 807 809 814 816 826 844 818 776 780 792 788 793 798 798 801 804 805 805 806 808 808 810 810 809 812 814 815 816 819 824 824 822 825 830 833 831 827 826 825 830 841 842 835 834 840 840 836 840 843 842 844 843 842 848 845 835 835 837 835 831 816 808 817 817 813 819 827 832 839 845 846 848 852 854 857
784 786 789 792 793 795 796 797 797 798 802 803 804 808 810 815 821 829 824 790 771 787 792 792 798 797 796 797 800 804 805 808 809 806 809 810 811 814 814 816 818 822 827 826 825 828 830 831 829 828 830 830 832 840 847 846 843 839 831 831 838 841 842 844 845 848 848 837 835 847 848 842 835 815 801 806 812 814 815 819 827 834 839 843 847 850 853 856
780 783 785 787 789 791 791 790 792 797 801 802 804 807 811 821 823 816 799 778 778 786 784 790 799 796 796 794 797 803 805 807 807 805 807 809 811 811 809 808 810 821 829 824 824 828 826 824 825 828 833 831 827 833 844 847 844 836 829 832 836 839 844 843 842 847 842 834 842 850 847 843 829 809 801 803 809 815 816 817 822 828 834 840 845 849 853 855
777 780 782 783 785 786 787 788 791 796 799 802 805 804 810 818 809 793 785 780 781 783 783 790 796 796 796 795 800 804 803 805 807 807 809 809 810 809 807 805 804 810 815 815 822 827 824 822 825 827 828 825 820 823 833 837 836 831 825 827 828 834 844 843 843 849 840 836 849 850 843 840 824 806 804 808 813 821 825 826 827 827 831 837 842 848 852 855
773 776 777 779 781 782 785 788 791 793 796 801 804 805 808 805 788 779 781 782 782 785 788 791 795 799 797 796 800 800 800 805 806 808 811 811 812 810 807 808 806 804 808 813 817 821 820 817 816 818 818 818 815 813 815 819 825 825 819 820 820 820 826 829 829 831 828 832 848 854 842 824 813 814 821 824 828 832 831 832 834 831 832 836 842 848 851 853
769 771 773 775 777 779 782 785 788 791 795 798 800 804 802 791 781 779 778 778 783 787 790 792 795 799 799 799 802 798 795 801 806 808 809 808 807 804 801 801 805 804 805 809 812 815 815 807 807 816 816 813 813 812 812 815 822 828 825 823 820 809 809 826 838 834 831 834 838 843 831 809 807 822 833 834 832 833 833 834 835 834 833 837 842 846 848 850
765 766 768 769 769 772 777 781 785 787 791 795 798 798 793 784 782 781 774 773 778 782 789 793 793 797 800 800 802 800 795 797 805 807 806 807 804 801 798 794 796 799 795 797 804 810 812 809 814 820 818 817 818 816 816 816 819 827 828 823 818 812 809 827 848 852 847 834 823 825 821 810 812 818 827 834 830 828 832 833 833 833 834 837 840 842 845 847
761 761 762 762 762 766 771 775 780 783 787 792 793 790 786 781 780 779 777 776 776 777 781 784 784 789 794 796 796 798 796 796 803 803 802 806 799 793 797 792 789 792 787 787 794 796 799 806 816 818 815 821 827 821 819 819 817 821 822 815 813 818 815 814 826 840 845 833 820 819 815 808 808 810 819 829 824 821 827 831 833 834 834 835 836 838 842 844
756 758 758 756 758 762 767 771 775 779 782 784 785 783 780 776 773 774 778 779 777 777 776 774 774 777 783 787 788 792 794 793 800 800 797 800 789 779 787 790 786 788 786 787 792 790 790 798 813 821 818 822 827 820 816 819 819 817 815 810 810 815 814 814 820 826 832 830 820 819 819 809 800 799 809 814 809 809 819 828 832 831 831 831 832 835 839 842
753 757 754 749 754 759 763 768 771 774 777 776 776 775 771 769 769 769 772 775 777 779 777 772 771 774 778 779 779 786 791 789 794 795 789 791 784 773 776 779 781 785 784 786 789 790 790 792 804 820 821 819 821 816 811 814 819 820 816 813 812 809 808 812 813 810 814 818 815 815 814 802 789 787 791 794 794 797 811 823 825 823 824 825 826 830 834 837
749 752 748 745 750 755 760 765 767 770 771 768 766 765 764 765 767 768 768 769 772 777 778 774 773 775 777 778 778 782 786 784 788 788 782 781 778 773 773 772 776 783 784 786 787 789 792 789 795 816 824 818 812 807 802 802 808 813 811 811 813 813 813 813 811 810 810 809 809 811 802 786 782 784 779 780 785 790 801 810 813 816 818 820 822 824 827 832
745 746 743 744 748 751 758 763 764 764 763 762 761 762 763 764 765 769 769 769 770 773 776 774 773 774 776 779 778 780 783 784 786 785 780 778 773 770 772 772 773 780 786 790 788 786 789 788 793 811 817 807 801 805 808 804 802 802 800 800 801 805 812 811 812 819 820 811 807 811 801 782 783 790 784 783 788 791 795 800 805 811 814 816 819 820 823 827
743 742 741 743 746 748 755 759 758 758 758 758 757 758 761 762 763 767 770 772 772 773 775 776 774 774 775 776 776 778 781 783 786 784 779 775 769 769 777 779 775 777 783 786 784 783 786 788 793 803 806 803 806 816 822 819 812 805 801 797 794 795 798 798 804 815 826 825 818 819 811 790 790 801 798 796 800 800 800 800 803 808 810 814 817 819 822 825
740 741 742 744 744 746 751 755 756 755 755 755 755 756 760 761 763 766 769 771 772 772 774 774 772 773 772 772 775 777 778 780 782 781 777 773 773 780 788 788 781 778 778 779 781 784 787 784 788 798 802 804 810 815 819 822 816 805 801 801 796 792 791 792 797 803 810 817 817 820 814 792 792 807 806 805 809 810 809 806 805 808 810 814 817 818 821 824
740 744 745 744 745 746 747 748 750 751 752 754 756 759 762 762 762 765 766 767 769 770 770 769 769 769 769 771 773 773 775 776 776 777 776 772 777 788 793 789 784 779 778 779 777 778 781 780 783 796 802 804 807 807 807 814 814 802 799 803 798 794 798 802 804 804 803 803 803 807 799 784 793 808 807 808 813 812 813 811 808 810 812 813 816 817 820 823
739 744 746 745 745 745 744 742 744 747 749 752 755 757 761 763 763 763 763 763 764 766 767 766 767 767 769 772 774 772 773 773 772 775 777 775 781 791 792 789 787 782 783 787 781 775 778 778 776 781 787 789 792 789 784 793 804 803 803 807 801 798 802 800 801 805 803 801 801 796 785 781 796 806 801 804 810 807 808 812 813 813 812 813 815 816 819 821
733 738 745 748 747 746 745 743 742 742 743 748 754 756 758 761 762 763 762 762 763 765 765 766 768 769 770 772 772 772 772 773 774 775 775 778 784 790 791 789 788 787 787 787 783 779 779 778 773 767 768 771 771 772 774 780 790 795 800 804 801 800 800 795 796 799 797 802 803 789 780 782 791 796 793 797 803 801 800 807 812 812 811 812 813 815 817 819
727 729 737 742 744 746 746 745 743 740 738 741 749 753 754 756 760 762 762 761 762 764 766 768 769 768 768 769 768 768 769 774 778 776 775 780 787 791 792 789 787 787 786 783 783 782 779 779 776 772 774 777 773 774 778 779 781 786 793 798 799 801 801 797 793 789 790 801 797 781 780 785 783 785 789 792 797 799 797 800 804 804 807 810 812 814 816 818
726 726 727 728 731 736 739 739 740 740 737 738 743 748 750 754 758 758 761 763 764 763 766 769 768 763 763 763 764 768 773 777 779 779 778 783 788 790 789 788 787 786 785 783 783 783 782 781 779 779 781 783 783 785 784 781 782 784 785 788 792 797 801 798 792 787 787 791 784 777 783 784 778 780 785 786 790 793 792 796 799 801 804 807 811 814 815 816
727 727 728 727 726 727 729 731 735 739 738 738 743 747 748 751 754 754 757 763 766 764 763 764 763 761 762 762 761 767 773 771 772 776 780 782 785 787 786 785 786 786 784 784 784 785 785 785 786 787 785 786 793 796 794 790 788 787 784 781 783 790 795 794 789 786 785 781 775 778 785 781 776 778 781 784 788 791 793 797 800 800 802 805 809 811 812 813
725 724 726 728 730 730 730 731 734 739 740 740 741 743 744 746 748 751 755 757 761 763 762 760 759 760 764 764 761 763 765 762 762 769 776 779 781 783 782 781 784 789 788 787 789 788 785 786 791 790 787 792 801 802 801 799 794 791 787 781 782 790 795 793 785 781 785 783 777 780 785 781 777 779 781 786 792 794 795 797 798 798 800 803 807 808 809 809
723 722 722 724 728 732 733 733 733 736 739 740 738 739 742 742 741 746 752 752 752 756 757 756 758 763 766 766 762 763 766 767 766 767 771 774 775 777 779 779 782 787 789 790 791 789 787 790 794 791 786 792 804 806 804 804 803 799 789 781 786 794 791 787 781 778 781 783 782 786 785 778 777 781 784 789 792 792 791 793 796 798 799 802 805 805 805 805
723 723 722 721 724 730 732 733 734 733 733 733 733 734 737 738 739 744 750 753 753 753 753 754 758 764 769 768 765 765 768 771 771 771 772 774 775 777 779 780 780 782 785 790 791 790 789 789 792 791 787 793 809 811 804 804 804 794 778 770 779 786 782 780 781 778 778 779 781 782 776 772 778 784 786 790 792 791 789 790 792 794 797 801 801 801 802 803